Eagle, AK

5:43 AM AKST on February 06, 2016 (GMT -0900)
Eagle

Weather History for PAEG - March, 2012

Change the Weather History Date:

Saturday, March 31, 2012

  Actual Average (PABN) Record (PABN)
Temperature  
Mean Temperature 20 °F -  
Max Temperature 30 °F 24 °F 39 °F (1997)
Min Temperature 7 °F 11 °F -9 °F (2002)
Degree Days  
Heating Degree Days 45    
Moisture  
Dew Point 7 °F    
Average Humidity 55    
Maximum Humidity 77    
Minimum Humidity 40    
Precipitation  
Precipitation 0.00 in - - ()
Sea Level Pressure  
Sea Level Pressure 29.60 in    
Wind  
Wind Speed 2 mph (South)    
Max Wind Speed 7 mph    
Max Gust Speed -    
Visibility 10 miles    
Events      
Averages and records for this station are not official NWS values.
T = Trace of Precipitation, MM = Missing Value Source: NWS Daily Summary

Daily Weather History Graph

Daily Weather History Graph

Search for Another Location

Airport or City:

Trip Planner

Search our weather history database for the weather conditions in past years. The results will help you decide how hot, cold, wet, or windy it might be!

Date:

Astronomy

Mar. 31, 2012 Rise Set
Actual Time 6:42 AM AKDT 8:16 PM AKDT
Civil Twilight 5:51 AM AKDT 9:07 PM AKDT
Nautical Twilight 4:45 AM AKDT 10:14 PM AKDT
Astronomical Twilight 3:16 AM AKDT 11:46 PM AKDT
Moon 11:31 AM AKDT (3/31) 5:10 AM AKDT (3/31)
Length of Visible Light 15h 16m
Length of Day
13h 34m
First Quarter, 60% of the Moon is Illuminated
Mar 31
First Quarter
Apr 6
Full
Apr 13
Last Quarter
Apr 20
New
Apr 29
First Quarter

Hourly Weather History & Observations

Time (AKDT) Temp. Windchill Dew Point Humidity Pressure Visibility Wind Dir Wind Speed Gust Speed Precip Events Conditions
12:53 AM 16.0 °F 10.4 °F 6.1 °F 65% 29.47 in 10.0 mi SW 3.5 mph - N/A   Overcast
1:53 AM 17.1 °F - 6.1 °F 62% 29.49 in 10.0 mi Calm Calm - N/A   Overcast
2:53 AM 19.0 °F - 7.0 °F 59% 29.50 in 10.0 mi Calm Calm - N/A   Overcast
3:53 AM 19.9 °F 13.4 °F 7.0 °F 57% 29.52 in 10.0 mi West 4.6 mph - N/A   Overcast
4:53 AM 19.0 °F - 6.1 °F 57% 29.53 in 10.0 mi Calm Calm - N/A   Overcast
5:53 AM 18.0 °F 12.7 °F 6.1 °F 60% 29.55 in 10.0 mi NE 3.5 mph - N/A   Overcast
6:53 AM 17.1 °F - 5.0 °F 59% 29.56 in 10.0 mi Calm Calm - N/A   Overcast
7:53 AM 17.1 °F 11.7 °F 5.0 °F 59% 29.58 in 10.0 mi NNE 3.5 mph - N/A   Mostly Cloudy
8:53 AM 18.0 °F - 6.1 °F 60% 29.60 in 10.0 mi Calm Calm - N/A   Overcast
9:53 AM 19.0 °F 13.9 °F 6.1 °F 57% 29.60 in 10.0 mi NE 3.5 mph - N/A   Overcast
10:53 AM 21.0 °F - 7.0 °F 55% 29.61 in 10.0 mi Calm Calm - N/A   Overcast
11:53 AM 21.9 °F - 6.1 °F 51% 29.61 in 10.0 mi Calm Calm - N/A   Overcast
12:53 PM 24.1 °F 18.2 °F 6.1 °F 46% 29.62 in 10.0 mi NE 4.6 mph - N/A   Overcast
1:53 PM 25.0 °F - 7.0 °F 46% 29.62 in 10.0 mi Calm Calm - N/A   Overcast
2:53 PM 27.0 °F - 7.0 °F 43% 29.62 in 10.0 mi Calm Calm - N/A   Overcast
3:53 PM 27.0 °F 23.0 °F 7.0 °F 43% 29.62 in 10.0 mi WSW 3.5 mph - N/A   Partly Cloudy
4:53 PM 30.0 °F 26.5 °F 8.1 °F 40% 29.62 in 10.0 mi West 3.5 mph - N/A   Mostly Cloudy
5:53 PM 30.0 °F - 9.0 °F 41% 29.62 in 10.0 mi Calm Calm - N/A   Mostly Cloudy
6:53 PM 28.9 °F - 9.0 °F 43% 29.64 in 10.0 mi Calm Calm - N/A   Mostly Cloudy
7:53 PM 28.0 °F - 9.0 °F 45% 29.65 in 10.0 mi Calm Calm - N/A   Overcast
8:53 PM 25.0 °F - 9.0 °F 51% 29.66 in 10.0 mi Calm Calm - N/A   Overcast
9:53 PM 17.1 °F 11.7 °F 7.0 °F 65% 29.68 in 10.0 mi SSE 3.5 mph - N/A   Partly Cloudy
10:53 PM 10.9 °F 0.2 °F 3.9 °F 73% 29.70 in 10.0 mi SSE 6.9 mph - N/A   Clear
11:53 PM 7.0 °F 0.1 °F 1.0 °F 77% 29.72 in 10.0 mi SSE 3.5 mph - N/A   Clear